#timestamp,LO_Frequency,Hit 
1502467215.3,286046998.5,N
1502467235.1,286047001.0,N
1502467236.0,286047001.0,N
1502467255.8,286046998.2,N
1502467275.7,286046996.8,N
1502467295.5,286046993.6,N
1502467315.3,286046993.7,N
1502467335.1,286046993.4,N
1502467355.9,286046996.4,N
1502467375.7,286046991.7,N
1502467395.5,286046992.8,N
1502467415.4,286046991.5,N
1502467435.2,286046991.2,N
1502467455.0,286046990.3,N
1502467455.9,286046990.3,N
1502467475.8,286046988.5,N
1502467495.6,286046990.0,N
1502467515.4,286046991.2,N
1502467535.3,286046986.9,N
1502467555.1,286046992.4,N
1502467556.0,286046992.4,N
1502467575.8,286046989.5,N
1502467595.7,286046983.8,P
1502467615.5,286046988.6,N
1502467635.3,286046990.5,N
1502467655.2,286046990.5,N
1502467675.9,286046992.0,N
1502467695.7,286046990.3,N
1502467715.6,286046992.4,N
1502467735.4,286046994.2,N
1502467755.2,286046992.7,N
1502467775.0,286046992.7,N
1502467775.9,286046992.7,N
1502467795.8,286046990.2,P
1502467815.6,286046998.7,N
1502467835.5,286046999.0,N
1502467855.3,286046999.5,N
1502467875.1,286046997.9,N
1502467895.8,286046995.6,N
1502467915.7,286046993.6,N
1502467935.5,286046992.5,N
1502467955.3,286046994.2,N
1502467975.2,286046999.0,N
1502467995.0,286046998.3,N
1502467995.9,286046998.3,N
1502468015.7,286046996.7,N
1502468035.6,286046997.0,N
1502468055.4,286046999.1,N
1502468075.2,286047000.3,N
1502468095.1,286047003.1,N
1502468096.0,286047003.1,N
1502468115.8,286047001.8,N
1502468135.6,286047002.6,N
1502468155.5,286046998.7,N
1502468175.3,286046999.2,N
1502468195.1,286047001.0,N
1502468215.9,286047002.2,N
1502468235.7,286047001.6,N
1502468255.5,286047000.0,N
1502468275.3,286047005.9,N
1502468295.2,286047001.9,N
1502468315.0,286046999.7,N
1502468315.9,286046999.7,N
1502468335.7,286047002.4,N
1502468355.6,286047001.5,N
1502468375.4,286047005.2,N
1502468395.2,286047004.3,N
1502468415.1,286047003.7,N
1502468416.0,286047003.7,N
1502468435.8,286047005.8,N
1502468455.6,286047005.9,N
1502468475.5,286046998.2,N
1502468495.3,286047000.4,N
1502468515.1,286046999.4,N
1502468535.9,286046995.2,N
1502468555.7,286046997.4,N
1502468575.5,286046996.2,N
1502468595.4,286046997.6,N
1502468615.2,286046993.6,N
1502468635.0,286046993.6,N
1502468635.9,286046993.6,N
1502468655.8,286046993.6,N
1502468675.6,286046994.8,N
1502468695.4,286046994.9,N
1502468715.2,286046995.3,N
1502468735.1,286046997.9,N
1502468736.0,286046997.9,N
1502468755.8,286046995.3,N
1502468775.6,286046996.1,N
1502468795.5,286046995.3,N
1502468815.3,286046997.5,N
1502468835.1,286046997.7,N
1502468855.9,286046997.4,N
1502468875.7,286046999.5,N
1502468895.5,286046999.4,N
1502468915.4,286046997.6,N
1502468935.2,286046997.0,N
1502468955.0,286046996.0,N
1502468955.9,286046996.0,N
1502468975.8,286046995.5,N
1502468995.6,286046997.8,N
1502469015.4,286046995.5,N
1502469035.3,286046993.3,P
1502469055.1,286047000.7,N
1502469056.0,286047000.7,N
1502469075.8,286047000.5,N
1502469095.7,286047000.9,N
1502469115.5,286046998.5,N
1502469135.3,286046996.7,N
1502469155.2,286046995.2,N
1502469175.9,286046995.1,N
1502469195.7,286046996.7,N
1502469215.5,286046995.6,N
1502469235.4,286046994.2,N
1502469255.2,286046992.2,P
1502469275.0,286046996.2,N
1502469276.0,286046996.2,N
1502469295.8,286047000.7,N
1502469315.6,286046998.2,N
1502469335.4,286047000.3,N
1502469355.3,286047002.8,N
1502469375.1,286047002.4,N
1502469395.8,286046999.9,N
1502469415.7,286046996.9,N
1502469435.5,286046998.0,N
1502469455.3,286046998.0,N
1502469475.2,286046996.3,N
1502469495.9,286046992.3,N
1502469515.7,286046992.0,N
1502469535.6,286046993.5,N
1502469555.4,286046996.1,N
1502469575.2,286046994.3,N
1502469595.1,286046992.2,N
1502469596.0,286046992.2,N
1502469615.8,286046994.5,N
1502469635.6,286046993.7,N
1502469655.4,286046993.8,N
1502469675.3,286046993.9,N
1502469695.1,286046990.6,N
1502469715.8,286046991.1,N
1502469735.7,286046990.7,N
1502469755.5,286046990.8,N
1502469775.3,286046991.6,N
1502469795.2,286046989.8,N
1502469815.9,286046989.9,N
1502469835.7,286046989.4,N
1502469855.6,286046987.7,P
1502469875.4,286046992.2,N
1502469895.2,286046995.9,N
1502469915.1,286046993.7,N
1502469916.0,286046993.7,N
1502469935.8,286046993.5,N
1502469955.6,286046995.8,N
1502469975.5,286046995.5,N
1502469995.3,286046996.6,N
1502470015.1,286047002.2,N
1502470035.9,286047003.3,N
1502470055.7,286047003.7,N
1502470075.5,286047001.7,N
1502470095.3,286047002.0,N
1502470115.2,286047001.0,N
1502470135.0,286047002.5,N
1502470135.9,286047002.5,N
1502470155.7,286047004.8,N
1502470175.6,286047004.0,N
1502470195.4,286047005.9,N
1502470215.2,286047005.9,N
1502470235.1,286047004.2,N
1502470236.0,286047004.2,N
1502470255.8,286047002.9,N
1502470275.6,286047005.3,N
1502470295.5,286047006.3,N
1502470315.3,286047007.4,N
1502470335.1,286047009.8,N
1502470355.9,286047010.3,N
1502470375.7,286047009.8,N
1502470395.5,286047009.3,N
1502470415.4,286047013.7,N
1502470435.2,286047013.7,N
1502470455.0,286047012.4,N
1502470455.9,286047012.4,N
1502470475.8,286047010.9,N
1502470495.6,286047009.6,N
1502470515.4,286047009.8,N
1502470535.2,286047010.5,N
1502470555.1,286047007.8,N
1502470556.0,286047007.8,N
1502470575.8,286047012.4,P
1502470595.7,286047004.0,N
1502470615.5,286047001.7,N
1502470635.3,286047003.8,N
1502470655.1,286047002.4,N
1502470675.9,286047003.2,N
1502470695.7,286047002.3,N
1502470715.5,286047000.9,N
1502470735.4,286046995.6,N
1502470755.2,286046995.7,N
1502470775.0,286046998.0,N
1502470775.9,286046998.0,N
1502470795.8,286046995.5,N
